Regional Weather Roundup
Issued by NWS Mobile, AL

Current Version | Previous Version | Text Only | Print | Product List | Glossary On
Versions: 1 2 3 4 5 6 7 8 9 10 11 12 13 14 15 16 17 18 19 20 21 22 23 24 25 26 27 28 29 30 31 32 33 34 35 36 37 38 39 40 41 42 43 44 45 46 47 48 49
000 ASUS44 KMOB 041312 RWRMOB REGIONAL WEATHER ROUNDUP NATIONAL WEATHER SERVICE MOBILE AL 700 AM CST THU MAR 04 2021 NOTE: "FAIR" INDICATES FEW OR NO CLOUDS BELOW 12,000 FEET WITH NO SIGNIFICANT WEATHER AND/OR OBSTRUCTIONS TO VISIBILITY. * THESE STATIONS ARE PART OF THE UNIVERSITY OF SOUTH ALABAMA MESONET AND ARE NOT UNDER NWS OR FAA QUALITY CONTROL. ALZ061>064-041400- COASTAL ALABAMA CITY SKY/WX TMP DP RH WIND PRES REMARKS MOBILE REG APT CLEAR 39 39 100 CALM 30.16S BROOKLEY FIELD CLEAR 45 38 76 NW7 30.17S USA CAMPUS* N/A 45 43 93 CALM N/A DOG RIVER* NOT AVBL CITY SKY/WX TMP DP RH WIND PRES REMARKS GULF SHORES CLEAR 43 41 92 CALM 30.15S $$ ALZ051>060-041400- INTERIOR SOUTHWEST AND SOUTH CENTRAL ALABAMA CITY SKY/WX TMP DP RH WIND PRES REMARKS GREENVILLE CLEAR 40 33 76 CALM 30.13 EVERGREEN CLEAR 42 38 85 N3 30.15S ATMORE* N/A N/A N/A N/A N5 30.17S ANDALUSIA/OPP CLEAR 44 38 79 NW5 30.13S ANDALUSIA* N/A 43 37 81 NW5 30.13S FLORALA APT SUNNY 45 38 76 NW5 30.15S FLORALA* N/A 45 39 81 SW2 30.13S $$ FLZ001>006-041400- WESTERN FLORIDA PANHANDLE CITY SKY/WX TMP DP RH WIND PRES REMARKS PENSACOLA CLEAR 50 39 66 N9 30.14R NAS PENSACOLA CLEAR 48 39 71 N5 30.14R MILTON NOT AVBL WHTNG S FIELD CLEAR 47 39 74 N10 30.14R CITY SKY/WX TMP DP RH WIND PRES REMARKS JAY* N/A 45 36 70 CALM 30.15S DUKE FIELD SUNNY 43 38 84 CALM 30.13S CRESTVIEW SUNNY 45 38 76 VRB3 30.15R VALPARAISO SUNNY 47 38 71 N10 30.13R DESTIN SUNNY 51 41 68 N7 30.14R $$ MSZ076-079-041400- INTERIOR SOUTHEAST MISSISSIPPI CITY SKY/WX TMP DP RH WIND PRES REMARKS LEAKESVILLE* NOT AVBL AGRICOLA* NOT AVBL $$ MARINE OBSERVATIONS STATION/POSITION TIME TEMP WIND PRES WAVE AIR SEA DIR/SP/G HT/PER (UTC) (F) (DEG/KT/KT) (MB) (FT/S) PETIT BOIS ISLND 1230 52 10/ 12/ 14 1021.2R E DAUPHIN ISLAND 1300 53 360/ 10/ 11 1021.2R MIDDLE BAY LIGHT 1300 53 320/ 11 1020.3 USCG MOBILE BAY 1230 46 58 340/ 3/ 6 1020.5F STATE DOCKS 1230 44 54 1021.3F FORT MORGAN 1230 53 10/ 11/ 12 1020.8S 12 S ORANGE BCH 1250 57 64 1021.0R 2/ 3 PENSACOLA BAY 1230 50 62 360/ 6/ 8 1020.7R $$ SELECTED LOCATIONS ACROSS THE REGION CITY SKY/WX TMP DP RH WIND PRES REMARKS NEW ORLEANS CLEAR 50 44 80 CALM 30.19R GULFPORT CLEAR 42 39 89 N3 30.17R PASCAGOULA AP CLEAR 43 40 89 CALM 30.17R PASCAGOULA* N/A 45 43 93 CALM 30.17R HATTIESBURG CLEAR 36 34 92 CALM 30.20R LAUREL PTCLDY 37 37 100 CALM 30.20R MERIDIAN CLEAR 34 31 88 CALM 30.19R JACKSON CLEAR 35 33 92 CALM 30.19R MONTGOMERY CLEAR 41 36 82 CALM 30.14R TROY SUNNY 38 35 89 CALM 30.13R ASHFORD* N/A 43 37 81 NW5 30.13S DOTHAN SUNNY 45 37 73 NW7 30.14R PANAMA CITY SUNNY 47 42 83 NW7 30.11R $$

USA.gov is the U.S. government's official web portal to all federal, state and local government web resources and services.